Miscellaneous Local Product
Issued by NWS North Platte, NE

Home | Current Version | Previous Version | Text Only | Print | Product List | Glossary On
Versions: 1 2 3 4 5 6 7 8 9 10 11 12 13 14 15 16 17 18 19 20 21 22 23 24 25 26 27 28 29 30 31 32 33 34 35 36 37 38 39 40 41 42 43 44 45 46 47 48 49 50
000
AXUS43 KLBF 041710
MISLBF


WESTERN AND NORTH CENTRAL NEBRASKA HOURLY WEATHER ROUNDUP
NATIONAL WEATHER SERVICE NORTH PLATTE NE
1200 PM CDT FRI SEP 04 2015

NOTE: "FAIR" INDICATES FEW OR NO CLOUDS BELOW 12,000 FEET WITH NO
SIGNIFICANT WEATHER AND/OR OBSTRUCTIONS TO VISIBILITY.

NOTE: STATIONS NOT REPORTING VARIABLES SUCH AS SKY/WEATHER OR
PRESSURE ARE PROVIDED BY THE NEBRASKA DEPARTMENT OF
ROADS...RAWS...AND APRS NETWORKS...AND ARE NOT UNDER
NATIONAL WEATHER SERVICE QUALITY CONTROL.

...OBSERVATIONS IN AND NEAR THE EASTERN PANHANDLE OF NEBRASKA...

CITY           SKY/WX    TMP DP  RH WIND       PRES   REMARKS
PINE RIDGE     SUNNY     85  53  33 VRB5      29.85S
CHADRON        SUNNY     85  49  28 VRB5      29.85S
ALLIANCE       SUNNY     82  52  35 CALM      29.91S
SIDNEY         MOSUNNY   87  46  24 NW10      29.95S
CRESCENT LAKE    N/A     84  50  30 SW6G13      N/A
BIG SPRINGS      N/A     82  58  43 W5          N/A
$$

...OBSERVATIONS IN NORTH CENTRAL NEBRASKA...

CITY           SKY/WX    TMP DP  RH WIND       PRES   REMARKS
VALENTINE      SUNNY     84  60  44 SW10      29.81F
THEDFORD       SUNNY     85  63  48 SW5       29.85S
AINSWORTH      SUNNY     82  65  56 S10       29.83S
O`NEILL        SUNNY     85  66  52 S17       29.83S
ORD            MOSUNNY   83  63  50 S20G26    29.83F
BROKEN BOW     SUNNY     83  63  50 S13       29.85S
SPRINGVIEW       N/A     83  66  56 SW8         N/A
SARGENT          N/A     82  66  57 CALM        N/A
CHAMBERS         N/A     86  65  49 S12         N/A
EWING            N/A     85  69  59 S9G18       N/A
$$

...OBSERVATIONS IN SOUTHWEST NEBRASKA AND FAR NORTHEAST COLORADO...

CITY           SKY/WX    TMP DP  RH WIND       PRES   REMARKS
WRAY           CLOUDY    84  52  33 W5        29.94S
HOLYOKE        FAIR      84  54  34 SW3       29.93S
IMPERIAL       SUNNY     83  57  41 W5        29.90S
OGALLALA       SUNNY     81  59  47 W3        29.89S
NORTH PLATTE   SUNNY     79  62  56 VRB3      29.86S
MCCOOK         SUNNY     83  62  49 VRB7      29.86S
LEXINGTON      SUNNY     84  62  46 S14       29.85F
PAXTON           N/A     79  63  57 SW3         N/A
BRADY            N/A     81  64  56 CALM        N/A
CALLAWAY         N/A     80  69  70 S12         N/A
$$

...OBSERVATIONS IN CENTRAL LINCOLN COUNTY AREA...

CITY           SKY/WX    TMP DP  RH WIND       PRES   REMARKS
N.P. AIRPORT   SUNNY     79  62  56 VRB3      29.86S
N.P. DOWNTOWN    N/A     82  66  57 CALM        N/A
N.P. SOUTHEAST   N/A     82  64  54 CALM        N/A
N.P. HILLCREST   N/A     79  66  63 SW3         N/A
$$

...SOME OBSERVATIONS FROM AROUND THE REGION...

CITY           SKY/WX    TMP DP  RH WIND       PRES   REMARKS
DENVER         PTSUNNY   80  42  25 SW5       30.04S
LARAMIE        MOSUNNY   72  41  32 SW15G22   30.15S
CHEYENNE       SUNNY     81  36  19 W17G25    30.06S
SCOTTSBLUFF    SUNNY     80  49  33 SW6       29.92F
RAPID CITY     SUNNY     81  56  42 VRB3      29.83S
PIERRE         SUNNY     82  66  58 SE10      29.76S
WINNER         FAIR      84  64  50 S13       29.79S
SIOUX FALLS    CLOUDY    76  67  73 S10       29.87R
OMAHA          PTSUNNY   83  71  67 SE15      29.89F
GRAND ISLAND   MOSUNNY   85  65  51 S16G29    29.86F
KANSAS CITY    MOSUNNY   88  68  51 SW12      30.00S HX  91
WICHITA        MOSUNNY   88  66  48 S16G28    29.96F HX  90
HAYS           MOSUNNY   91  61  35 S24G32    29.87S HX  91
LIBERAL        MOSUNNY   88  57  35 S14G22    29.95S
GOODLAND       SUNNY     86  49  27 W6        29.94S
$$



USA.gov is the U.S. government's official web portal to all federal, state and local government web resources and services.